Tracking 23731 objects as of 26-Sep-2021
HD Live streaming from Space Station
objects crossing your sky now

STARLINK-2619

Track STARLINK-2619 now!
10-day predictions
STARLINK-2619 is classified as:


NORAD ID: 48475
Int'l Code: 2021-040AZ
Perigee: 554.1 km
Apogee: 554.6 km
Inclination: 53.1 °
Period: 95.6 minutes
Semi major axis: 6925 km
RCS: Unknown
Launch date: May 9, 2021
Source: United States (US)
Launch site: AIR FORCE EASTERN TEST RANGE (AFETR)
aabbcc
Your satellite tracking list
Your tracking list is empty




NASA's NSSDC Master Catalog

Two Line Element Set (TLE):
1 48475U 21040AZ  21268.76847927 -.00000556  00000-0 -18495-4 0  9993
2 48475  53.0549 290.6547 0000354 100.4995 259.6033 15.06398041 21423
Source of the keplerian elements: AFSPC